カタログに戻る

CZ-6A DEB

運用中PO
NORAD 60886·DEBRIS·🇨🇳 China

打ち上げ Aug 6, 2024 から Taiyuan Satellite Launch Center

Loading…

次のパス (今後24時間)

TLE

最新Source: Space-Track

元期: Sep 14, 2026, 23:26 UTC

1 60886U 24140KR  26257.97647847  .00000571  00000-0  27187-3 0  9994
2 60886  89.0065 265.9800 0057817 260.5160  98.9491 14.17202097107131

AllMySatでCZ-6A DEBをリアルタイム追跡

Download on the App Store